Location: Lombard
(41.8800°N, 88.0080°W)
Time: 10:26:03
(UTC-05:00)

A-11 Canister half - Pass Details

Date: 16 February 2023
Orbit: 1512 x 1687 km, 47.2° (Epoch: 26 March)

Event Time Altitude Azimuth Distance (km) Brightness Sun altitude
Rises 05:15:54 0° 194° (SSW) 4,926 11.5 -17.5°
Reaches altitude 10° 05:19:41 10° 183° (S) 3,934 11.1 -16.8°
Maximum altitude 05:27:44 28° 130° (SE) 2,740 10.9 -15.3°
Drops below altitude 10° 05:35:39 10° 76° (ENE) 3,867 12.3 -13.8°
Sets 05:39:17 0° 66° (ENE) 4,830 12.8 -13.1°
